Location: Unspecified
(41.1850°N, 73.2650°W)
Time: 16:47:16
(UTC+00:00)

Cosmos 2219 - Pass Details

Date: 14 December 2025
Orbit: 830 x 860 km, 71.1° (Epoch: 16 January)

Event Time Altitude Azimuth Distance (km) Brightness Sun altitude
Rises 22:31:12 0° 340° (NNW) 3,436 6.4 -12.1°
Reaches altitude 10° 22:33:44 10° 345° (NNW) 2,499 5.6 -12.5°
Maximum altitude 22:39:21 53° 62° (ENE) 1,044 3.3 -13.5°
Drops below altitude 10° 22:44:57 10° 139° (SE) 2,490 5.4 -14.5°
Sets 22:47:27 0° 144° (SE) 3,422 6.2 -15.0°
